Flag for U.S.A. Weather past 2 weeks in Orlando, Florida, U.S.A.

Now
77 °F

Clear.


Feels Like: 78 °F
Forecast: 72 / 85 °F
Wind: 3 mph from Southeast

Location: Orlando Executive Airport

Current Time: Sep 22, 2014 at 2:27:35 AM

Latest Report: Sep 22, 2014 at 1:53 AM


Visibility: 10 mi

Pressure: 30.02 "Hg

Humidity: 85%

Dew point: 72 °F

Location of OrlandoLocation

Historic Weather in Orlando — Graph

°F

Orlando temperature yesterday

Maximum temperature yesterday: 88 °F (at 2:53 PM)
Minimum temperature yesterday: 72 °F (at 4:53 AM)
Average temperature yesterday: 78 °F

Past Weeks' High & Low Weather Summary

 TemperatureHumidityPressure
High92 °F (Sep 8, 2:53 PM)97% (Sep 17, 5:53 AM)30.18 "Hg (Sep 17, 5:53 AM)
Low71 °F (Sep 19, 10:53 PM)45% (Sep 9, 2:53 PM)29.87 "Hg (Sep 18, 4:53 PM)
Average80 °F78%30.02 "Hg
* Reported Sep 7 12:53 AM — Sep 22 12:53 AM, Orlando, Weather by CustomWeather, © 2014

Note: Actual official high and low records may vary slightly from our data, if they occured in-between our weather recording intervals... More about our weather records

Advertising

Orlando weather history for previous 24 hours

 ConditionsComfort  
Time TempWeatherWind HumidityBarometerVisibility
12:53 AM
Sep 22
78 °FMostly cloudy.No wind84%30.04 "Hg10 mi
11:53 PM
Sep 21
78 °FOvercast.6 mph82%30.05 "Hg10 mi
10:53 PM78 °FOvercast.6 mph84%30.04 "Hg10 mi
9:53 PM78 °FPassing clouds.6 mph84%30.04 "Hg10 mi
8:53 PM78 °FPassing clouds.6 mph82%30.02 "Hg10 mi
7:53 PM80 °FPartly sunny.7 mph79%30.00 "Hg10 mi
6:53 PM81 °FPartly sunny.8 mph77%29.98 "Hg10 mi
5:53 PM85 °FPartly sunny.8 mph63%29.97 "Hg10 mi
4:53 PM86 °FCloudy.No wind55%29.96 "Hg10 mi
3:53 PM86 °FScattered clouds.3 mph57%29.96 "Hg10 mi
2:53 PM88 °FPartly sunny.6 mph54%29.96 "Hg10 mi
1:53 PM86 °FBroken clouds.6 mph59%29.99 "Hg10 mi
12:53 PM84 °FBroken clouds.5 mph63%30.01 "Hg10 mi
11:53 AM82 °FPassing clouds.5 mph70%30.03 "Hg10 mi
10:53 AM82 °FSunny.7 mph72%30.04 "Hg10 mi
9:53 AM78 °FPassing clouds.5 mph82%30.03 "Hg10 mi
9:03 AM75 °FLow clouds.5 mph88%30.02 "Hg8 mi
8:53 AM74 °FPartly sunny.5 mph91%30.02 "Hg7 mi
7:53 AM72 °FFog.No wind93%30.00 "Hg5 mi
6:53 AM73 °FLow clouds.3 mph90%29.98 "Hg8 mi
5:53 AM72 °FLow clouds.5 mph93%29.96 "Hg8 mi
4:53 AM72 °FPassing clouds.6 mph93%29.95 "Hg10 mi
3:53 AM73 °FClear.No wind90%29.95 "Hg10 mi
2:53 AM73 °FClear.5 mph90%29.95 "Hg10 mi
Weather by CustomWeather, © 2014

See weather overviewHow to use our weather pages